Location: Grandview
(34.8900°N, 117.1058°W)
Time: 16:33:46
(UTC-08:00)

N. Korean satellite - Pass Details

Date: 11 October 2017
Orbit: 461 x 513 km, 97.2° (Epoch: 16 December)

Event Time Altitude Azimuth Distance (km) Brightness Sun altitude
Rises 19:08:15 0° 176° (S) 2,564 10.2 -11.0°
Reaches altitude 10° 19:10:21 10° 181° (S) 1,677 9.3 -11.5°
Maximum altitude 19:13:54 56° 260° (W) 581 7.3 -12.2°
Drops below altitude 10° 19:17:25 10° 340° (NNW) 1,659 9.5 -12.9°
Sets 19:19:29 0° 344° (NNW) 2,533 10.4 -13.4°
